This is the latest recevied weather packets stored in our database for station/object KG7MRB. If no packets are shown the sender has not sent any weather packets the latest 10 day(s).
| Time | Temp. | Humidity | Pressure | Rain* | Wind** | Luminosity | Snow |
|---|---|---|---|---|---|---|---|
| 1777650657 | 13.33° C | 85% | 1035.8 hPa | 0 mm | - | 220 W/m² | - |
| 1777650354 | 12.78° C | 85% | 1035.8 hPa | 0 mm | - | 253 W/m² | - |
| 1777650051 | 12.22° C | 85% | 1035.9 hPa | 0 mm | - | 225 W/m² | - |
| 1777649748 | 11.67° C | 88% | 1035.9 hPa | 0 mm | - | 197 W/m² | - |
| 1777649445 | 11.67° C | 86% | 1035.9 hPa | 0 mm | - | 173 W/m² | - |
| 1777649142 | 10.56° C | 90% | 1035.8 hPa | 0 mm | - | 203 W/m² | - |
| 1777648839 | 10° C | 91% | 1035.8 hPa | 0 mm | - | 213 W/m² | - |
| 1777648535 | 8.89° C | 95% | 1035.9 hPa | 0 mm | - | 199 W/m² | - |
| 1777648233 | 8.33° C | 95% | 1035.8 hPa | 0 mm | - | 120 W/m² | - |
| 1777647928 | 8.33° C | 95% | 1035.8 hPa | 0 mm | - | 88 W/m² | - |
| 1777647625 | 8.33° C | 95% | 1035.9 hPa | 0 mm | - | 80 W/m² | - |
| 1777647321 | 8.33° C | 95% | 1035.8 hPa | 0 mm | - | 75 W/m² | - |
| 1777647019 | 7.78° C | 95% | 1035.5 hPa | 0 mm | - | 72 W/m² | - |
| 1777646715 | 7.78° C | 96% | 1035.5 hPa | 0 mm | - | 69 W/m² | - |
| 1777646410 | 7.78° C | 96% | 1035.6 hPa | 0 mm | - | 72 W/m² | - |
| 1777646107 | 7.22° C | 97% | 1035.7 hPa | 0 mm | - | 73 W/m² | - |
| 1777645804 | 7.22° C | 97% | 1035.7 hPa | 0 mm | - | 73 W/m² | - |
| 1777645502 | 6.67° C | 97% | 1035.6 hPa | 0 mm | - | 72 W/m² | - |
| 1777645196 | 6.67° C | 98% | 1035.5 hPa | 0 mm | - | 68 W/m² | - |
| 1777644893 | 6.67° C | 98% | 1035.4 hPa | 0 mm | - | 61 W/m² | - |
| 1777644591 | 6.67° C | 98% | 1035.5 hPa | 0 mm | - | 57 W/m² | - |
| 1777644286 | 6.67° C | 98% | 1035.5 hPa | 0 mm | - | 52 W/m² | - |
| 1777643983 | 6.11° C | 98% | 1035.5 hPa | 0 mm | - | 47 W/m² | - |
| 1777643680 | 6.11° C | 99% | 1035.4 hPa | 0 mm | - | 42 W/m² | - |
| 1777643378 | 6.11° C | 99% | 1035.4 hPa | 0 mm | - | 37 W/m² | - |
* Rain latest hour (hover to see other rain measurements)
** Current wind speed in m/s (hover to see current wind gust speed)